• In Hungary
  • List of Countries
  • For 7 days
  • Water Temperature
  • Satellite Maps
  • Weather Map
  • News
  • Weather Widgets
  • user-avatar
    Login

    Hourly Weather Stanislavchyk

    Today, 20 October, Friday

    Time Temperature Precipitation Wind Pressure Humidity
    00:00 +15°C° 0 mm 2 mps 749 mmHg 67%
    01:00 +15°C° 0 mm 2 mps 749 mmHg 68%
    02:00 +14°C° 0 mm 2 mps 749 mmHg 68%
    03:00 +14°C° 0 mm 2 mps 749 mmHg 70%
    04:00 +14°C° 0 mm 1 mps 749 mmHg 72%
    05:00 +13°C° 0 mm 1 mps 749 mmHg 73%
    06:00 +14°C° 0 mm 1 mps 749 mmHg 72%
    07:00 +14°C° 0 mm 1 mps 749 mmHg 71%
    08:00 +15°C° 0 mm 1 mps 749 mmHg 70%
    09:00 +18°C° 0 mm 1 mps 749 mmHg 64%
    10:00 +18°C° 0 mm 2 mps 750 mmHg 59%
    11:00 +20°C° 0 mm 2 mps 750 mmHg 53%
    12:00 +21°C° 0 mm 2 mps 750 mmHg 51%
    13:00 +21°C° 0 mm 2 mps 750 mmHg 49%
    14:00 +22°C° 0 mm 3 mps 750 mmHg 47%
    15:00 +21°C° 0 mm 3 mps 750 mmHg 52%
    16:00 +19°C° 0 mm 3 mps 750 mmHg 57%
    17:00 +18°C° 0 mm 3 mps 750 mmHg 63%
    18:00 +17°C° 0 mm 3 mps 750 mmHg 67%
    19:00 +16°C° 0 mm 3 mps 750 mmHg 72%
    20:00 +14°C° 0 mm 3 mps 750 mmHg 77%
    21:00 +13°C° 0 mm 3 mps 750 mmHg 79%
    22:00 +13°C° 0 mm 3 mps 750 mmHg 81%
    23:00 +13°C° 0 mm 2 mps 751 mmHg 83%

    Tomorrow, 21 October, Saturday

    Time Temperature Precipitation Wind Pressure Humidity
    00:00 +13°C° 0 mm 2 mps 751 mmHg 84%
    01:00 +12°C° 0 mm 2 mps 751 mmHg 85%
    02:00 +12°C° 0 mm 2 mps 751 mmHg 86%
    03:00 +10°C° 0 mm 2 mps 750 mmHg 87%
    04:00 +10°C° 0 mm 2 mps 750 mmHg 88%
    05:00 +10°C° 0 mm 2 mps 750 mmHg 89%
    06:00 +10°C° 0 mm 2 mps 750 mmHg 86%
    07:00 +10°C° 0 mm 3 mps 750 mmHg 83%
    08:00 +11°C° 0 mm 3 mps 751 mmHg 79%
    09:00 +13°C° 0 mm 2 mps 751 mmHg 73%
    10:00 +15°C° 0 mm 2 mps 750 mmHg 66%
    11:00 +16°C° 0 mm 2 mps 750 mmHg 60%
    12:00 +17°C° 0 mm 2 mps 750 mmHg 57%
    13:00 +18°C° 0 mm 2 mps 750 mmHg 54%
    14:00 +19°C° 0 mm 1 mps 749 mmHg 51%
    15:00 +18°C° 0 mm 1 mps 749 mmHg 54%
    16:00 +18°C° 0 mm 1 mps 749 mmHg 57%
    17:00 +16°C° 0 mm 1 mps 748 mmHg 60%
    18:00 +15°C° 0 mm 2 mps 748 mmHg 61%
    19:00 +15°C° 0 mm 2 mps 748 mmHg 63%
    20:00 +14°C° 0 mm 2 mps 748 mmHg 64%
    21:00 +14°C° 0.1 mm 2 mps 748 mmHg 65%
    22:00 +14°C° 0.1 mm 2 mps 748 mmHg 66%
    23:00 +13°C° 0.1 mm 2 mps 748 mmHg 67%

    Day after tomorrow, 22 October, Sunday

    Time Temperature Precipitation Wind Pressure Humidity
    00:00 +13°C° 0.3 mm 2 mps 748 mmHg 70%
    01:00 +13°C° 0.3 mm 2 mps 748 mmHg 72%
    02:00 +13°C° 0.3 mm 2 mps 748 mmHg 75%
    03:00 +12°C° 0.3 mm 2 mps 748 mmHg 76%
    04:00 +12°C° 0.3 mm 2 mps 748 mmHg 78%
    05:00 +12°C° 0.3 mm 2 mps 748 mmHg 79%
    06:00 +10°C° 0.3 mm 3 mps 748 mmHg 79%
    07:00 +10°C° 0.3 mm 3 mps 748 mmHg 79%
    08:00 +10°C° 0.3 mm 4 mps 748 mmHg 79%
    09:00 +10°C° 0 mm 4 mps 749 mmHg 74%
    10:00 +11°C° 0 mm 4 mps 749 mmHg 70%
    11:00 +12°C° 0 mm 4 mps 749 mmHg 65%
    12:00 +12°C° 0 mm 4 mps 749 mmHg 63%
    13:00 +13°C° 0 mm 4 mps 749 mmHg 61%
    14:00 +13°C° 0 mm 3 mps 749 mmHg 58%
    15:00 +13°C° 0 mm 3 mps 749 mmHg 59%
    16:00 +12°C° 0 mm 3 mps 749 mmHg 61%
    17:00 +12°C° 0 mm 2 mps 749 mmHg 62%
    18:00 +12°C° 0 mm 2 mps 750 mmHg 63%
    19:00 +10°C° 0 mm 3 mps 750 mmHg 64%
    20:00 +10°C° 0 mm 3 mps 750 mmHg 65%
    21:00 +9°C° 0 mm 3 mps 750 mmHg 64%
    22:00 +9°C° 0 mm 3 mps 750 mmHg 64%
    23:00 +8°C° 0 mm 3 mps 750 mmHg 64%

    23 October, Monday

    Time Temperature Precipitation Wind Pressure Humidity
    00:00 +8°C° 0 mm 3 mps 750 mmHg 63%
    01:00 +7°C° 0 mm 4 mps 750 mmHg 63%
    02:00 +7°C° 0 mm 4 mps 750 mmHg 62%
    03:00 +7°C° 0 mm 4 mps 750 mmHg 62%
    04:00 +7°C° 0 mm 4 mps 750 mmHg 61%
    05:00 +6°C° 0 mm 4 mps 750 mmHg 61%
    06:00 +7°C° 0 mm 5 mps 750 mmHg 62%
    07:00 +7°C° 0 mm 5 mps 750 mmHg 64%
    08:00 +7°C° 0 mm 5 mps 750 mmHg 65%
    09:00 +8°C° 0 mm 6 mps 750 mmHg 64%
    10:00 +9°C° 0 mm 6 mps 749 mmHg 63%
    11:00 +9°C° 0 mm 6 mps 749 mmHg 62%
    12:00 +10°C° 0 mm 6 mps 749 mmHg 61%
    13:00 +10°C° 0 mm 6 mps 749 mmHg 59%
    14:00 +11°C° 0 mm 6 mps 748 mmHg 58%
    15:00 +10°C° 0 mm 6 mps 748 mmHg 59%
    16:00 +10°C° 0 mm 6 mps 748 mmHg 59%
    17:00 +10°C° 0 mm 6 mps 748 mmHg 60%
    18:00 +9°C° 0.2 mm 6 mps 748 mmHg 59%
    19:00 +9°C° 0.2 mm 6 mps 748 mmHg 59%
    20:00 +9°C° 0.2 mm 6 mps 749 mmHg 58%
    21:00 +8°C° 0.2 mm 6 mps 749 mmHg 57%
    22:00 +8°C° 0.2 mm 6 mps 749 mmHg 56%
    23:00 +8°C° 0.2 mm 6 mps 749 mmHg 56%

    24 October, Tuesday

    Time Temperature Precipitation Wind Pressure Humidity
    00:00 +7°C° 0 mm 6 mps 749 mmHg 56%
    01:00 +7°C° 0 mm 6 mps 749 mmHg 57%
    02:00 +7°C° 0 mm 6 mps 749 mmHg 58%
    03:00 +7°C° 0 mm 6 mps 749 mmHg 59%
    04:00 +5°C° 0 mm 6 mps 749 mmHg 60%
    05:00 +5°C° 0 mm 6 mps 749 mmHg 61%
    06:00 +5°C° 0 mm 6 mps 749 mmHg 61%
    07:00 +5°C° 0 mm 6 mps 749 mmHg 61%
    08:00 +5°C° 0 mm 7 mps 750 mmHg 60%
    09:00 +7°C° 0 mm 6 mps 750 mmHg 57%
    10:00 +8°C° 0 mm 6 mps 750 mmHg 54%
    11:00 +9°C° 0 mm 6 mps 750 mmHg 51%
    12:00 +10°C° 0 mm 6 mps 750 mmHg 49%
    13:00 +10°C° 0 mm 6 mps 750 mmHg 47%
    14:00 +11°C° 0 mm 6 mps 750 mmHg 45%
    15:00 +12°C° 0 mm 5 mps 750 mmHg 45%
    16:00 +10°C° 0 mm 5 mps 751 mmHg 46%
    17:00 +9°C° 0 mm 5 mps 751 mmHg 46%
    18:00 +9°C° 0 mm 5 mps 751 mmHg 47%
    19:00 +8°C° 0 mm 5 mps 751 mmHg 47%
    20:00 +8°C° 0 mm 5 mps 752 mmHg 48%
    21:00 +7°C° 0 mm 5 mps 752 mmHg 49%
    22:00 +7°C° 0 mm 5 mps 752 mmHg 49%
    23:00 +6°C° 0 mm 5 mps 753 mmHg 50%

    25 October, Wednesday

    Time Temperature Precipitation Wind Pressure Humidity
    00:00 +6°C° 0 mm 5 mps 753 mmHg 51%
    01:00 +6°C° 0 mm 5 mps 753 mmHg 51%
    02:00 +5°C° 0 mm 5 mps 753 mmHg 52%
    03:00 +5°C° 0 mm 5 mps 753 mmHg 52%
    04:00 +5°C° 0 mm 5 mps 754 mmHg 52%
    05:00 +3°C° 0 mm 5 mps 754 mmHg 52%
    06:00 +3°C° 0 mm 5 mps 754 mmHg 52%
    07:00 +3°C° 0 mm 6 mps 754 mmHg 52%
    08:00 +3°C° 0 mm 6 mps 754 mmHg 52%
    09:00 +4°C° 0 mm 6 mps 755 mmHg 51%
    10:00 +7°C° 0 mm 6 mps 755 mmHg 49%
    11:00 +8°C° 0 mm 5 mps 755 mmHg 47%
    12:00 +8°C° 0 mm 5 mps 755 mmHg 47%
    13:00 +9°C° 0 mm 5 mps 755 mmHg 46%
    14:00 +10°C° 0 mm 5 mps 755 mmHg 46%
    15:00 +9°C° 0 mm 5 mps 755 mmHg 49%
    16:00 +8°C° 0 mm 4 mps 755 mmHg 52%
    17:00 +8°C° 0 mm 3 mps 755 mmHg 55%
    18:00 +8°C° 0 mm 3 mps 755 mmHg 57%
    19:00 +6°C° 0 mm 4 mps 755 mmHg 59%
    20:00 +6°C° 0 mm 4 mps 756 mmHg 62%
    21:00 +5°C° 0 mm 4 mps 756 mmHg 62%
    22:00 +5°C° 0 mm 4 mps 756 mmHg 63%
    23:00 +5°C° 0 mm 4 mps 756 mmHg 64%
    Show more